Terminal Aerodrome Forecast
Issued by NWS Flagstaff, AZ

Home | Current Version | Previous Version | Text Only | Print | Product List | Glossary On
Versions: 1 2 3 4 5 6 7 8 9 10 11 12 13 14 15 16 17
000
FTUS45 KFGZ 201100
TAFINW
TAF
KINW 201126Z 2012/2112 13005KT P6SM FEW120
     FM201900 31009KT P6SM SCT100
     FM210200 VRB05KT P6SM FEW100=

USA.gov is the U.S. government's official web portal to all federal, state and local government web resources and services.